Location: Newark
(50.1395°N, 5.5234°W)
Time: 02:00:00
(UTC+00:00)

ISS - Pass Details

Date: 07 March 2021
Orbit: 418 x 422 km, 51.6° (Epoch: 11 April)

Event Time Altitude Azimuth Distance (km) Brightness Sun altitude
Exits shadow 05:28:27 28° 280° (W) 813 -2.9 -14.3°
Maximum altitude 05:30:03 73° 200° (SSW) 441 -3.8 -14.1°
Drops below altitude 10° 05:33:24 10° 116° (ESE) 1,497 -0.1 -13.5°
Sets 05:35:30 0° 114° (ESE) 2,359 1.1 -13.2°
